Home   Weather   Gorgan   Past weeks

Flag for Iran Past Weather in Gorgan, Iran — Yesterday and Last 2 Weeks

57 °F

Passing clouds.

Feels Like: 56 °F
Forecast: 48 / 69 °F
Wind: 7 mph from Northwest

Location: Gorgan Airport

Current Time: Oct 20, 2016 at 11:12:25 PM

Latest Report: Oct 20, 2016 at 10:30 PM

Visibility: N/A

Pressure: 30.18 "Hg

Humidity: 82%

Dew Point: 52 °F

Location of GorganLocation

Past Weather in Gorgan — Graph


Gorgan Temperature Yesterday

Maximum temperature yesterday: 64 °F (at 2:30 PM)
Minimum temperature yesterday: 50 °F (at 4:30 AM)
Average temperature yesterday: 56 °F

High & Low Weather Summary for the Past Weeks

High86 °F (Oct 8, 2:30 PM)100% (Oct 12, 4:30 AM)30.48 "Hg (Oct 12, 4:30 AM)
Low48 °F (Oct 18, 4:30 AM)33% (Oct 7, 2:30 PM)29.80 "Hg (Oct 14, 4:30 PM)
Average66 °F76%30.11 "Hg
* Reported Oct 5 9:30 PM — Oct 20 10:00 PM, Gorgan, Weather by CustomWeather, © 2016

Note: Actual official high and low records may vary slightly from our data, if they occured in-between our weather recording intervals... More about our weather records


Gorgan Weather History for the Previous 24 Hours

Scroll right to see more
Time TempWeatherWind HumidityBarometerVisibility
10:00 PM
Thu, Oct 20
59 °FPassing clouds.5 mph77%30.18 "HgN/A
9:30 PM59 °FPassing clouds.No wind77%30.18 "HgN/A
8:30 PM57 °FPassing clouds.7 mph77%30.18 "HgN/A
7:30 PM57 °FPassing clouds.9 mph77%30.18 "HgN/A
6:30 PM59 °FPassing clouds.9 mph68%30.18 "HgN/A
6:00 PM59 °FPassing clouds.7 mph68%30.18 "HgN/A
5:30 PM61 °FPassing clouds.7 mph59%30.18 "HgN/A
5:00 PM63 °FPassing clouds.No wind59%30.18 "HgN/A
4:30 PM68 °FPassing clouds.No wind43%30.18 "HgN/A
3:30 PM70 °FPassing clouds.5 mph43%30.18 "HgN/A
2:30 PM70 °FPassing clouds.9 mph83%30.18 "HgN/A
1:30 PM70 °FPassing clouds.7 mph43%30.21 "HgN/A
12:30 PM68 °FPassing clouds.5 mph53%30.21 "HgN/A
12:00 PM68 °FPassing clouds.7 mph49%30.24 "HgN/A
11:30 AM68 °FPassing clouds.12 mph49%30.24 "HgN/A
10:30 AM64 °FSunny.7 mph60%30.27 "Hg10 mi
9:30 AM63 °FSunny.5 mph73%30.27 "Hg10 mi
9:00 AM61 °FPassing clouds.No wind77%30.30 "HgN/A
8:30 AM57 °FPassing clouds.No wind94%30.30 "HgN/A
7:30 AM50 °FPassing clouds.No wind100%30.27 "Hg4 mi
6:30 AM48 °FPassing clouds.No wind94%30.27 "Hg4 mi
5:30 AM50 °FClear.No wind94%30.27 "Hg10 mi
4:30 AM48 °FPassing clouds.No wind100%30.27 "HgN/A
3:30 AM50 °FPartly cloudy.No wind94%30.27 "HgN/A
2:30 AM52 °FPartly cloudy.No wind94%30.24 "HgN/A
1:30 AM54 °FPartly cloudy.No wind94%30.24 "HgN/A
12:30 AM52 °FPartly cloudy.No wind94%30.27 "HgN/A
11:30 PM
Wed, Oct 19
55 °FPartly cloudy.9 mph94%30.27 "HgN/A
Weather by CustomWeather, © 2016

See weather overviewHow to use our weather pages